STARLINK-11193, 60195

Orbit data source: Space-Track

STARLINK-11193, 60195 is a payload satellite owned by SpaceX/Seattle (US) in LEO that was launched on Wed, 03 Jul 2024 UTC via an FALCON 9 launch vehicle from the Air Force Eastern Test Range (AFETR). Payload-class satellites include a variety of spacecraft equipped with specific instruments for various scientific and technological missions. These include communications satellites like Starlink; space stations such as the ISS; scientific satellites like the Hubble; Earth observation satellites from companies like Planet Labs, Umbra, and HawkEye 360; GPS; miniature CubeSats for education and research; and military/defense satellites.

Loading next visibility...
Identifier
60195, 2024-124N
Orbit
LEO
Last TLE update
4 hours ago
Origin
Manufacturer
SpaceX/Seattle
Mission
Operational Commercial Communications
Bus & Motor
STARLINK V2M, Unknown motor
Mass
730 kg wet, ~700 kg dry
Launch date (UTC)
2024-07-03 (1 year ago)
Launch vehicle
FALCON 9
Launch site
Air Force Eastern Test Range (AFETR)
Object type
Payload
Rocket body
Debris
Shape & HBR
Box + 2 Pan, 29 m
Radar Cross Section
36.964 m², Large (>1 m²)

Expand to show TLE details & history

TLE from 4 hours ago
0 STARLINK-11193
1 60195U 24124N   25186.58403877  .00000717  00000-0  10765-4 0  9996
2 60195  53.1592 299.3712 0000579  80.0675 280.0409 15.69718486 57727
Epoch: 2025-07-05T14:01Z
TLE epoch observation values (Epoch: 2025-07-05T14:01:00.949Z)
Latitude
0.00003°
Longitude
165.29728°
Altitude
360.549 km
Speed
7.694 km/s
True Right ascension
19h 57m 29s
True Declination
0° 00' 00"
Sunlit
Object was in full shadow at epoch
Visualization orbit readout
Latitude
-23.88124°
Longitude
145.1221°
Altitude
366.719 km
Speed
7.689 km/s
Apparent Right ascension
18h 31m 05s
Apparent Declination
-31° 31' 07"
Sunlit
Object is in full shadow
Visualization observer readout
Local Sidereal Time
06:23:54
Azimuth
349.621° N
Elevation
-81.478°
Doppler factor
1
Orbital elements
Apogee altitude
360.353 km
Perigee altitude
359.573 km
Semi-major axis
6,738.1 km
Eccentricity
0.00006
Inclination
53.1592°
RAAN
299.3712°
Arg. of periapsis
80.0675°
True anomaly
Unknown
Mean anomaly
280.0409°
Eccentric anomaly
Unknown
Mean motion
3.92407 °/min
Orbital period
91.74 mins
BSTAR
0.000010765
Loading maneuver chart data...
Loading SW <> Apogee altitude chart data...
Loading historical data...
Loading historical data...
Loading historical data...
Loading historical data...
Loading historical data...
Loading historical data...
Loading historical data...

STARLINK-11193 Visibility forecast

Observer location: undefined°, undefined°

Span
Click to sort rows by Start time (UTC) header in descending order
Start Az.
Max El. time (UTC)
Max El. Az.
Max El.
End time (UTC)
End Az.
5 mins2025-07-06 10:03:21.986Z219.115° SW2025-07-06 10:06:21.986Z93.383° ESE39.832°2025-07-06 10:08:21.986Z56.972° ENE
4 mins2025-07-06 16:29:21.986Z340.132° N2025-07-06 16:30:21.986Z16.327° NNE31.809°2025-07-06 16:33:21.986Z106.647° ESE
|